STARLINK-33984, 63830

Orbit data source: Space-Track

STARLINK-33984, 63830 is a payload satellite owned by SpaceX/Seattle (US) in LEO that was launched on Sun, 04 May 2025 UTC via an FALCON 9 launch vehicle from the Air Force Eastern Test Range (AFETR). Payload-class satellites include a variety of spacecraft equipped with specific instruments for various scientific and technological missions. These include communications satellites like Starlink; space stations such as the ISS; scientific satellites like the Hubble; Earth observation satellites from companies like Planet Labs, Umbra, and HawkEye 360; GPS; miniature CubeSats for education and research; and military/defense satellites.

Loading next visibility...
Identifier
63830, 2025-092AC
Orbit
LEO
Last TLE update
10 hours ago
Origin
Manufacturer
SpaceX/Seattle
Mission
Operational spacecraft
Bus & Motor
STARLINK V2MO, Unknown motor
Mass
575 kg wet, ~530 kg dry
Launch date (UTC)
2025-05-04 (1 week ago)
Launch vehicle
FALCON 9
Launch site
Air Force Eastern Test Range (AFETR)
Object type
Payload
Rocket body
Debris
Shape & HBR
Unknown
Radar Cross Section
Medium (>0.1 m² and <1 m²)

Expand to show TLE details & history

TLE from 10 hours ago
0 STARLINK-33984
1 63830U 25092AC  25133.16668981 -.01063505  00000-0 -39348-2 0  9998
2 63830  43.0009  78.5054 0001228 276.8164  69.2018 15.89574791  2547
Epoch: 2025-05-13T04:00Z
Definitive object data (Epoch: 2025-05-13T04:00:01.999Z)
Latitude
-9.59012°
Longitude
136.94883°
Altitude
304.689 km
Speed
7.727 km/s
True Right ascension
04h 32m 30s
True Declination
-9° 31' 48"
Sunlit
Object was in daylight at TLE epoch
Visualization TLE readout
Latitude
42.9872°
Longitude
-118.78059°
Altitude
310.055 km
Speed
7.728 km/s
Apparent Right ascension
10h 42m 52s
Apparent Declination
2° 47' 11"
Sunlit
Object is in daylight
Visualization observer readout
Local Sidereal Time
21:56:08
Azimuth
343.081° N
Elevation
-45.973°
Doppler factor
1
Orbital elements
Apogee altitude
306.292 km
Perigee altitude
304.65 km
Semi-major axis
6,683.608 km
Eccentricity
0.0001228
Inclination
43.0009°
RAAN
78.5054°
Arg. of periapsis
276.8164°
True anomaly
69.21496°
Mean anomaly
69.2018°
Eccentric anomaly
69.20838°
Mean motion
3.97216 °/min
BSTAR
-0.0039348
Orbital period
90.63 mins
Loading maneuver chart data...
Loading SW <> Apogee altitude chart data...
Loading historical data...
Loading historical data...
Loading historical data...
Loading historical data...
Loading historical data...
Loading historical data...
Loading historical data...

STARLINK-33984 Visibility forecast

Observer location: undefined°, undefined°

Span
Click to sort rows by Start time (UTC) header in descending order
Start Az.
Max El. time (UTC)
Max El. Az.
Max El.
End time (UTC)
End Az.
4 mins2025-05-13 23:54:22.211Z219.552° SW2025-05-13 23:56:22.211Z136.964° SSE32.029°2025-05-13 23:58:22.211Z84.011° E
|